Miscellaneous Local Product
Issued by NWS North Platte, NE

Home | Current Version | Previous Version | Text Only | Print | Product List | Glossary On
Versions: 1 2 3 4 5 6 7 8 9 10 11 12 13 14 15 16 17 18 19 20 21 22 23 24 25 26 27 28 29 30 31 32 33 34 35 36 37 38 39 40 41 42 43 44 45 46 47 48 49 50
000
AXUS43 KLBF 050110
MISLBF


WESTERN AND NORTH CENTRAL NEBRASKA HOURLY WEATHER ROUNDUP
NATIONAL WEATHER SERVICE NORTH PLATTE NE
700 PM CST SUN DEC 04 2016

NOTE: "FAIR" INDICATES FEW OR NO CLOUDS BELOW 12,000 FEET WITH NO
SIGNIFICANT WEATHER AND/OR OBSTRUCTIONS TO VISIBILITY.

NOTE: STATIONS NOT REPORTING VARIABLES SUCH AS SKY/WEATHER OR
PRESSURE ARE PROVIDED BY RAWS AND APRS NETWORKS AND ARE NOT UNDER
NATIONAL WEATHER SERVICE QUALITY CONTROL.

...OBSERVATIONS IN AND NEAR THE EASTERN PANHANDLE OF NEBRASKA...

CITY           SKY/WX    TMP DP  RH WIND       PRES   REMARKS
PINE RIDGE     CLOUDY    32  24  72 NE3       29.67F
CHADRON        PTCLDY    38  17  42 S7        29.67F WCI  33
ALLIANCE       CLEAR     31  14  49 S6        29.71F WCI  25
SIDNEY         CLEAR     29  10  45 SW12      29.76S WCI  19
CRESCENT LAKE    N/A     36   8  31 S5          N/A  WCI  32
$$

...OBSERVATIONS IN NORTHERN NEBRASKA AND FAR SOUTHERN SOUTH DAKOTA...

CITY           SKY/WX    TMP DP  RH WIND       PRES   REMARKS
WINNER         FAIR      34  25  69 SE10      29.74F WCI  26
VALENTINE      CLOUDY    36  15  42 CALM      29.74F
THEDFORD       CLEAR     37  17  44 S8        29.77F WCI  31
AINSWORTH      CLEAR     29  18  63 S8        29.76F WCI  21
O`NEILL        CLEAR     36  23  59 SE5       29.80F WCI  32
ORD            CLEAR     29  18  63 S8        29.81F WCI  21
BROKEN BOW     CLEAR     27  17  66 CALM      29.81F
VALENTINE NWR    N/A     33  13  43 S6          N/A  WCI  27
BUTTE            N/A     39  25  57 SE7         N/A  WCI  34
HALSEY           N/A     39  13  34 S5          N/A
CHAMBERS         N/A     30  15  53 CALM        N/A
EWING            N/A     34  26  71 CALM        N/A
$$

...OBSERVATIONS IN SOUTHWEST NEBRASKA AND FAR NORTHEAST COLORADO...

CITY           SKY/WX    TMP DP  RH WIND       PRES   REMARKS
WRAY           FAIR      41  14  33 SW13      29.81F
HOLYOKE        FAIR      36  12  38 S10       29.79F WCI  28
IMPERIAL       CLEAR     39  11  31 S13       29.80F WCI  31
OGALLALA       CLEAR     36  11  36 CALM      29.77F
NORTH PLATTE   CLEAR     35  15  44 S10       29.81F WCI  27
MCCOOK         CLEAR     36  14  40 S8        29.86S WCI  30
LEXINGTON      CLEAR     33  19  57 S7        29.85S WCI  27
STAPLETON        N/A     34  17  50 CALM        N/A
GOTHENBURG       N/A     38  15  40 S3          N/A
CALLAWAY         N/A     28  16  60 S7          N/A  WCI  21
$$

...OBSERVATIONS IN CENTRAL LINCOLN COUNTY AREA...

CITY           SKY/WX    TMP DP  RH WIND       PRES   REMARKS
N.P. AIRPORT   CLEAR     35  15  44 S10       29.81F WCI  27
N.P. DOWNTOWN    N/A     40  17  38 CALM        N/A
N.P. SOUTHEAST   N/A     38  17  41 S3          N/A
N.P. HILLCREST   N/A     37  19  47 SE5         N/A  WCI  33
$$

...SOME OBSERVATIONS FROM AROUND THE REGION...

CITY           SKY/WX    TMP DP  RH WIND       PRES   REMARKS
LARAMIE        CLOUDY    34  14  43 S18       29.79S WCI  23
CHEYENNE       CLOUDY    41  14  33 W32G47    29.72R
DENVER         CLOUDY    34  12  40 SE12      29.79F WCI  25
AKRON          CLEAR     35   9  33 SW10      29.78F WCI  27
SCOTTSBLUFF    CLEAR     41  19  41 W3        29.72F
RAPID CITY     CLOUDY    37  17  44 S7        29.63F WCI  32
BISMARCK       CLEAR     17  16  95 E3        29.67F
PIERRE         CLEAR     26  22  84 CALM      29.71F
SIOUX FALLS    CLEAR     36  30  79 SW5       29.80S WCI  32
OMAHA          CLEAR     35  30  82 S9        29.92S WCI  28
GRAND ISLAND   CLEAR     36  31  82 S10       29.87F WCI  28
KANSAS CITY    CLEAR     33  30  88 SW8       29.99S WCI  26
WICHITA        CLEAR     39  33  79 S6        30.00S WCI  35
OKLAHOMA CITY  PTCLDY    42  36  79 W3        30.04R
DALLAS         CLOUDY    51  41  68 NE16      30.03S
AMARILLO       CLOUDY    37  22  54 S8        30.02F WCI  31
DODGE CITY     CLEAR     36  26  67 S7        29.97F WCI  30
HAYS           CLEAR     36  25  64 SW9       29.95S WCI  29
GOODLAND       CLEAR     39  13  34 S16       29.86F WCI  30
$$




USA.gov is the U.S. government's official web portal to all federal, state and local government web resources and services.